STARLINK-37872, 69433

Orbit data source: Space-Track

STARLINK-37872, 69433 is a payload satellite owned by SpaceX/Seattle (US) in SSO that was launched on Sun, 07 Jun 2026 UTC via an FALCON 9 launch vehicle from the Air Force Western Test Range (AFWTR). Payload-class satellites include a variety of spacecraft equipped with specific instruments for various scientific and technological missions. These include communications satellites like Starlink; space stations such as the ISS; scientific satellites like the Hubble; Earth observation satellites from companies like Planet Labs, Umbra, and HawkEye 360; GPS; miniature CubeSats for education and research; and military/defense satellites.

Not visible in the next 10 days
Identifier
69433, 2026-126P
Orbit
SSO
Country
Flag of USUS
Related business
Manufacturer
SpaceX/Seattle
Mission
Operational spacecraft
Bus & Motor
STARLINK V2MO, Unknown motor
Mass
575 kg wet, ~530 kg dry
Launch date (UTC)
2026-06-07 (2 weeks ago)
Launch vehicle
FALCON 9
Launch site
Air Force Western Test Range (AFWTR)
Object type
Payload
Rocket body
Debris
Shape & HBR
Unknown
Radar Cross Section
RCS unknown

Expand to show TLE details & history
Last TLE update: 23 hours ago

TLE from 23 hours ago
0 STARLINK-37872
1 69433U 26126P   26170.88329837  .00258852  00000-0  13619-2 0  9998
2 69433  97.2823  31.0463 0001327  98.1198 262.0221 15.79999833  3173
Epoch: 2026-06-19T21:11Z
TLE epoch observation values (Epoch: 2026-06-19T21:11:56.979Z)
Latitude
0.00006°
Longitude
164.95299°
Altitude
333.74 km
Speed
7.708 km/s
True Right ascension
02h 04m 11s
True Declination
0° 00' 00"
Sunlit
Object was in daylight at epoch
Visualization orbit readout
Latitude
Unknown
Longitude
Unknown
Altitude
Unknown
Speed
Unknown
Apparent Right ascension
Unknown
Apparent Declination
Unknown
Sunlit
N/A
Visualization observer readout
Local Sidereal Time
07:11:55
Azimuth
Unknown
Elevation
Unknown
Doppler factor
Unknown
Orbital elements
Apogee altitude
328.212 km
Perigee altitude
326.432 km
Semi-major axis
6,705.459 km
Eccentricity
0.00013
Inclination
97.2823°
RAAN
31.0463°
Arg. of periapsis
98.1198°
True anomaly
262.00704°
Mean anomaly
262.0221°
Eccentric anomaly
262.01457°
Mean motion
3.95276 °/min
Orbital period
91.08 mins
BSTAR
0.0013619
Loading maneuver chart data...
Computing Atmospheric mass density...
Loading historical data...
Loading historical data...
Loading historical data...
Loading historical data...
Loading historical data...
Loading historical data...
Loading historical data...

Documentation

Showing up to 5 results
|